Regional Weather Roundup
Issued by NWS

Home | Current Version | Previous Version | Graphics & Text | Print | Product List | Glossary On
Versions: 1 2 3 4 5 6 7 8 9 10 11 12 13 14 15 16 17 18 19 20 21 22 23 24 25 26 27 28 29 30 31 32 33 34 35 36 37 38 39 40 41 42 43 44 45 46 47 48 49 50
570
ASUS43 KBIS 261210
RWRND

NORTH DAKOTA REGIONAL WEATHER ROUNDUP
NATIONAL WEATHER SERVICE BISMARCK ND
700 AM CDT THU MAY 26 2016

NOTE: "FAIR" INDICATES FEW OR NO CLOUDS BELOW 12,000 FEET WITH NO
SIGNIFICANT WEATHER AND/OR OBSTRUCTIONS TO VISIBILITY.


NDZ001>003-009>011-017-261300-
NORTHWEST NORTH DAKOTA

CITY           SKY/WX    TMP DP  RH WIND       PRES   REMARKS
WILLISTON      CLOUDY    48  47  96 W6        29.81F FOG
6HR MIN TEMP:  44; 6HR MAX TEMP:  48;

MINOT          CLOUDY    58  54  86 W8        29.76R
MINOT AFB      CLOUDY    55  55 100 W8        29.75R
$$

NDZ018>021-031>035-040>046-261300-
SOUTHWEST NORTH DAKOTA

CITY           SKY/WX    TMP DP  RH WIND       PRES   REMARKS
BISMARCK       CLEAR     47  44  90 SW6       29.82R
6HR MIN TEMP:  45; 6HR MAX TEMP:  51;

DICKINSON      PTCLDY    44  42  93 W6        29.80S
GARRISON         N/A     50  48  93 W9        29.79R
6HR MIN TEMP:  49; 6HR MAX TEMP:  55;

HETTINGER ARPT CLOUDY    39  37  92 CALM      29.85F
$$

NDZ004>008-012>016-024-026-027-054-261300-
NORTHEAST NORTH DAKOTA

CITY           SKY/WX    TMP DP  RH WIND       PRES   REMARKS
GRAND FORKS    CLOUDY    58  55  90 SW6       29.71S
GRND FRKS AFB  MOSUNNY   56  56 100 SW5       29.72R
DEVILS LAKE    CLOUDY    56  55  97 W6        29.75R
$$

NDZ022-023-025-028>030-036>039-047>053-261300-
SOUTHEAST NORTH DAKOTA

CITY           SKY/WX    TMP DP  RH WIND       PRES   REMARKS
FARGO          SUNNY     56  53  90 SW6       29.75R
6HR MIN TEMP:  51; 6HR MAX TEMP:  56;

JAMESTOWN      CLOUDY    55  53  93 W13       29.77R
$$





USA.gov is the U.S. government's official web portal to all federal, state and local government web resources and services.